Location: The C. Gantt Observatory
(33.6981°N, 81.6836°W)
Time: 12:26:26
(UTC-04:00)

Daily predictions for brighter satellites

Satellite Brightness Start Highest point End
(mag) Time Altitude Azimuth Time Altitude Azimuth Time Altitude Azimuth
Chandra Rocket (1) 4.3 20:35:44 10° WSW 20:41:34 66° S 21:06:39 10° E
BREEZE-M DEB (TANK) 3.8 20:40:41 10° NW 20:44:27 70° NE 20:58:06 10° SE
Meteor 1-13 Rocket 4.3 20:48:15 10° S 20:54:05 82° E 20:59:49 10° N
Cosmos 2251 Rocket 3.5 20:49:37 10° S 20:54:54 76° ESE 21:00:14 10° NNE
Cosmos 1242 Rocket 4.4 20:52:34 10° SSW 20:56:02 37° W 20:59:32 10° N
Cosmos 1725 Rocket 4.4 20:49:53 10° N 20:56:09 71° W 21:02:19 10° S
Cosmos 2098 Rocket 2.8 20:53:01 10° N 20:56:32 70° E 21:00:57 10° SSE
Cosmos 1743 3.5 20:53:02 10° NNE 20:56:32 33° E 21:00:01 10° SE
Cosmos 1892 Rocket 3.8 20:57:13 10° SSE 21:01:29 51° E 21:05:49 10° NNE
ERS-1 Rocket 3.8 20:57:58 10° SE 21:02:26 33° ENE 21:06:55 10° N
Delta 168 4.2 21:06:12 10° SSW 21:08:47 19° SSE 21:11:38 11° ESE
Cosmos 1110 Rocket 4.3 21:06:13 10° N 21:11:23 53° ENE 21:16:29 10° SSE
USA 186 1.4 21:09:06 10° SSE 21:12:03 82° E 21:14:50 10° N
Meteor 2-4 Rocket 3.9 21:07:48 10° S 21:13:30 59° E 21:19:19 10° NNE
Abrixas rocket 4.3 21:12:39 10° NNW 21:15:16 20° NNE 21:17:53 10° ENE
Cosmos 2333 Rocket 4.3 21:10:36 10° SW 21:15:35 32° WNW 21:20:36 10° N
Meteor 1-19 Rocket 4.2 21:10:15 10° S 21:15:54 87° E 21:21:31 10° N
Okean 2 3.6 21:11:55 10° SSE 21:15:57 50° E 21:20:01 10° NNE
BREEZE M DEB (TANK) 4.4 21:16:46 10° NW 21:18:29 13° NNW 21:19:44 10° NNE
Cosmos 2297 3.8 21:15:35 10° NNW 21:21:16 63° ENE 21:26:34 12° SSE
FENGYUN 3A 3.8 21:19:50 10° S 21:25:11 81° WSW 21:30:36 10° NNW
H-2A R/B 3.1 21:23:55 10° S 21:27:49 68° W 21:31:47 10° NNW
Cosmos 1726 Rocket 3.5 21:24:52 10° N 21:29:19 86° E 21:33:43 10° S
ISS -2.6 21:28:02 10° SSW 21:30:58 31° SE 21:33:54 10° ENE
PSLV R/B 3.6 21:27:40 10° WSW 21:31:11 74° NNW 21:34:45 10° ENE
OTV 4 2.8 21:29:35 10° WSW 21:31:24 15° SSW 21:32:59 11° S
Cosmos 2285 Rocket 4.1 21:30:07 10° N 21:36:25 67° ENE 21:41:43 15° SSE
Cosmos 494 Rocket 4.4 21:32:39 10° SSW 21:37:42 65° WNW 21:42:48 10° N
CZ-2C R/B 0.5 21:36:30 21° S 21:37:52 70° WSW 21:40:10 10° NNW
SPOT 5 3.6 21:36:20 19° ESE 21:38:40 30° ENE 21:42:28 10° N
CZ-4 DEB 4.3 21:35:44 10° SSW 21:38:44 35° W 21:41:44 10° NNW
Cosmos 1461 4.3 21:36:38 10° N 21:40:11 25° NE 21:42:09 18° E
Cosmos 2058 Rocket 3.0 21:38:39 10° N 21:43:02 87° W 21:46:56 13° S
GEOS 3 Rocket 3.8 21:38:41 14° SSE 21:43:13 69° WSW 21:48:28 10° NW
Cosmos 1602 Rocket 3.7 21:40:36 12° S 21:44:33 54° E 21:48:55 10° NNE
Cosmos 1464 Rocket 3.9 21:41:08 10° N 21:47:19 80° E 21:53:02 12° S
CZ-4 SHROUD 4.1 21:46:45 29° ESE 21:47:30 33° ENE 21:50:23 10° N
ALOS 3.6 21:46:16 10° SSW 21:50:33 36° W 21:54:52 10° NNW
Aureole 2 Rocket 3.5 21:47:49 10° SSW 21:51:48 54° WNW 21:55:27 10° N
GRACE-1 4.3 21:52:19 10° NNE 21:55:04 41° E 21:55:07 41° E
GRACE-2 4.3 21:52:46 10° NNE 21:55:30 41° E 21:55:33 41° E
deb Chang Zheng 4 4.4 21:51:35 10° N 21:55:52 53° WNW 22:00:06 10° SSW
Cosmos 1812 Rocket 4.2 21:55:08 10° NNE 21:59:13 37° E 22:00:27 31° ESE
Cosmos 2278 Rocket 4.0 21:56:26 10° NW 22:01:05 26° WSW 22:05:43 10° SSW
Cosmos 2034 Rocket 4.0 21:59:31 10° N 22:05:55 84° E 22:10:30 20° S
H-2A R/B 2.7 22:05:22 18° S 22:08:22 52° W 22:12:34 10° NNW
Atlas Centaur 2 3.0 22:01:21 10° WSW 22:08:46 61° SSE 22:15:35 17° E
SeaSat 1 2.6 22:07:21 32° SE 22:09:28 59° ENE 22:14:20 10° NNW
ARGOS 4.1 22:10:34 26° E 22:12:12 31° ENE 22:16:56 10° N
Meteor 1-15 Rocket 4.5 22:07:56 10° NNW 22:13:30 67° W 22:17:42 18° S
Cosmos 2369 Rocket 3.7 22:10:29 10° N 22:14:48 22° ENE 22:16:29 19° E
DEBRIS 2.6 22:11:37 10° NW 22:15:26 45° NNE 22:15:34 44° NE
PSLV R/B 3.0 22:16:10 76° SSW 22:16:23 84° W 22:19:29 10° NNW
Cosmos 1302 Rocket 4.1 22:11:15 10° NNW 22:16:29 73° WSW 22:19:13 29° S
Cosmos 1626 Rocket 4.1 22:13:37 12° SSW 22:17:38 59° W 22:22:01 10° N
Cosmos 1666 3.6 22:14:37 10° NNW 22:18:23 47° W 22:20:23 24° SSW
Cosmos 1939 Rocket 3.6 22:17:36 25° SSW 22:19:47 52° W 22:23:51 10° NNW
CZ-4B R/B 3.4 22:14:52 10° NNE 22:19:58 73° ESE 22:22:53 27° S
COSMOS 2455 2.8 22:18:54 10° SSW 22:24:54 84° WNW 22:30:57 10° NNE
Milstar 3 Cent rocket 3.3 22:21:23 10° W 22:26:57 26° SSW 22:27:55 25° S
MetOp-B 4.0 22:28:00 40° SSE 22:30:02 84° ENE 22:35:25 10° NNW
Meteor 2-12 Rocket 4.4 22:24:15 10° N 22:30:19 71° E 22:32:34 40° SSE
OAO 3 Copernicus 4.2 22:25:29 10° W 22:30:31 72° SSW 22:31:34 53° SE
ATLAS 3B R/B 2.9 22:27:27 10° SSW 22:35:00 61° ESE 22:42:28 10° NE
Cosmos 1953 Rocket 4.1 22:35:33 41° ENE 22:35:33 41° ENE 22:39:13 10° NNE
Cosmos 2346 Rocket 4.4 22:36:44 39° SSE 22:39:04 70° E 22:45:12 10° NNE
Centaur D AC-28 3.5 22:41:12 10° WSW 22:42:46 18° SW 22:42:46 18° SW
Cosmos 1515 4.0 22:43:53 59° WSW 22:44:14 63° W 22:48:05 10° N
Envisat 4.0 22:42:41 25° SSW 22:45:09 41° W 22:49:57 10° NNW
Cosmos 1066 Rocket 4.1 22:43:48 47° S 22:45:28 78° E 22:51:15 10° N
USA 234 3.4 22:45:49 39° ESE 22:48:18 66° NE 22:54:48 10° NW
Cosmos 407 Rocket 3.5 22:49:26 59° ESE 22:49:26 59° ESE 22:54:35 10° NNE
Abrixas rocket 3.8 22:49:14 10° WNW 22:51:25 33° W 22:51:25 33° W
Cosmos 1346 Rocket 3.6 22:56:00 44° NNE 22:56:00 44° NNE 22:58:46 10° NNE
DELTA 2 DEB (DPAF) 4.4 22:56:14 58° NE 22:56:14 58° NE 23:00:20 10° N
SL-23 DEB 4.3 22:49:18 10° SW 22:56:31 79° SE 22:58:26 35° NE
Lacrosse 4 Rocket 2.6 22:59:11 31° NE 22:59:11 31° NE 23:01:27 10° NNE
YAOGAN 6 3.7 23:02:20 42° WNW 23:02:20 42° WNW 23:05:29 10° NNW
USA 81 4.1 23:02:03 10° N 23:07:19 71° W 23:08:02 61° SW
ISS -0.6 23:04:55 10° W 23:07:26 20° NW 23:09:58 10° NNE
Cosmos 1758 Rocket 3.9 23:10:06 60° N 23:10:06 60° N 23:13:42 10° N
USA 238 DEB 4.3 23:10:59 40° E 23:10:59 40° E 23:16:23 10° NE
USA 238 4.3 23:11:09 39° E 23:11:09 39° E 23:16:29 10° NE
Cosmos 1943 3.7 23:07:20 25° SW 23:10:31 58° WNW 23:16:08 10° NNE
Meteor 1-21 4.1 23:11:18 74° ESE 23:11:34 76° E 23:17:22 10° NNE
CARTOSAT-1 4.5 23:14:29 41° NNE 23:14:29 41° NNE 23:17:36 10° N
Landsat 7 4.0 23:23:17 68° NNW 23:23:17 68° NNW 23:27:27 10° NNW
Cosmos 1943 Rocket 3.3 23:18:50 10° N 23:23:31 31° ENE 23:23:31 31° ENE
SL-08 RB Rocket 4.5 23:27:20 48° WNW 23:27:20 48° WNW 23:31:15 10° NNW
H-2A R/B 2.2 23:28:49 65° N 23:28:49 65° N 23:33:07 10° N
Cosmos 1992 Rocket 4.5 23:23:14 10° NNW 23:28:11 52° W 23:28:11 52° W
Terra 2.4 23:39:33 54° NNW 23:39:33 54° NNW 23:43:15 10° NNW
Nadezhda 4 Rocket 4.1 23:45:01 66° ENE 23:45:01 66° ENE 23:50:47 10° NNE
